{"data":{"norad_id":47693,"epoch":"2026-05-25T04:47:29.448096Z","epoch_age_seconds":67865,"freshness":"FRESH","line1":"1 47693U 21014C   26145.19964639 -.00000038  00000+0  79790-4 0  9999","line2":"2 47693  63.4020 257.7285 0175245   0.9059 359.2251 13.45447636257586","mean_motion":13.45447636,"eccentricity":0.0175245,"inclination_deg":63.402,"raan_deg":257.7285,"arg_perigee_deg":0.9059,"mean_anomaly_deg":359.2251,"bstar":7.979e-5,"rev_number":25758,"period_min":107.02757665702,"perigee_km":958.19602085918,"apogee_km":1219.9136270978,"semimajor_km":7467.1918239785,"source":"CELESTRAK","updated_at":"2026-05-25T13:37:56.514638Z"}}